| time (UTC) | temp F | wind direction | speed knots | gust knots | rain 1hr in | rain 24hr in | rain mn in | humidity % | barometer mb |
| 20260503224549 | 56 | 184 | 0.9 | 7.8 | 0.00 | 0.00 | 0.00 | 46 | 1012.2 |
| 20260503223048 | 57 | 212 | 0.9 | 8.7 | 0.00 | 0.00 | 0.00 | 46 | 1012.4 |
| 20260503221547 | 57 | 244 | 0.0 | 7.8 | 0.00 | 0.00 | 0.00 | 46 | 1012.4 |
| 20260503220048 | 58 | 126 | 1.7 | 10.4 | 0.00 | 0.00 | 0.00 | 45 | 1012.4 |
| 20260503214548 | 58 | 167 | 0.0 | 7.0 | 0.00 | 0.01 | 0.00 | 45 | 1012.4 |
| 20260503213046 | 58 | 232 | 1.7 | 7.0 | 0.00 | 0.01 | 0.00 | 45 | 1012.4 |
| 20260503211545 | 59 | 300 | 0.9 | 8.7 | 0.00 | 0.01 | 0.00 | 45 | 1012.5 |
| 20260503210044 | 59 | 200 | 0.0 | 7.0 | 0.00 | 0.01 | 0.00 | 45 | 1012.6 |
| 20260503204544 | 59 | 197 | 0.9 | 9.6 | 0.00 | 0.01 | 0.00 | 44 | 1012.6 |
| 20260503203049 | 60 | 186 | 1.7 | 8.7 | 0.00 | 0.01 | 0.00 | 43 | 1012.5 |
| 20260503201544 | 59 | 200 | 1.7 | 8.7 | 0.00 | 0.01 | 0.00 | 43 | 1012.7 |
| 20260503200039 | 58 | 182 | 1.7 | 12.2 | 0.00 | 0.01 | 0.00 | 44 | 1013.0 |
| 20260503194537 | 59 | 253 | 0.9 | 14.8 | 0.00 | 0.01 | 0.00 | 43 | 1013.4 |
| 20260503193040 | 59 | 228 | 2.6 | 9.6 | 0.00 | 0.01 | 0.00 | 45 | 1013.6 |
| 20260503191538 | 59 | 239 | 0.9 | 10.4 | 0.00 | 0.01 | 0.00 | 44 | 1013.9 |
| 20260503190036 | 59 | 194 | 1.7 | 10.4 | 0.00 | 0.01 | 0.00 | 48 | 1014.1 |
| 20260503184531 | 58 | 279 | 0.9 | 12.2 | 0.00 | 0.01 | 0.00 | 44 | 1014.3 |
| 20260503183029 | 59 | 222 | 0.9 | 8.7 | 0.00 | 0.01 | 0.00 | 43 | 1014.5 |
| 20260503181527 | 59 | 214 | 1.7 | 9.6 | 0.00 | 0.01 | 0.00 | 47 | 1014.6 |
| 20260503180032 | 59 | 195 | 0.0 | 9.6 | 0.00 | 0.01 | 0.00 | 46 | 1014.8 |
| 20260503174521 | 58 | 214 | 0.0 | 10.4 | 0.00 | 0.01 | 0.00 | 48 | 1014.9 |
| 20260503173021 | 58 | 263 | 0.9 | 8.7 | 0.00 | 0.01 | 0.00 | 50 | 1015.1 |
| 20260503171519 | 59 | 215 | 0.9 | 7.0 | 0.00 | 0.01 | 0.00 | 51 | 1015.3 |
| 20260503081530 | 34 | 51 | 0.0 | 0.0 | 0.00 | 0.03 | 0.00 | 86 | 1016.5 |
| 20260503071526 | 34 | 51 | 0.0 | 0.0 | 0.00 | 0.03 | 0.00 | 85 | 1016.4 |
| 20260503054518 | 36 | 51 | 0.0 | 0.0 | 0.00 | 0.04 | 0.00 | 81 | 1016.7 |
| 20260503053014 | 36 | 51 | 0.0 | 0.0 | 0.00 | 0.04 | 0.00 | 79 | 1016.7 |
| 20260503051512 | 37 | 51 | 0.0 | 0.0 | 0.00 | 0.04 | 0.00 | 78 | 1016.6 |
| 20260503050009 | 38 | 51 | 0.0 | 0.0 | 0.00 | 0.04 | 0.00 | 78 | 1016.8 |
| 20260503044507 | 38 | 51 | 0.0 | 0.0 | 0.00 | 0.12 | 0.00 | 77 | 1016.7 |
| 20260503043047 | 39 | 51 | 0.0 | 0.0 | 0.00 | 0.12 | 0.00 | 78 | 1016.8 |
| 20260503041535 | 39 | 51 | 0.0 | 0.0 | 0.00 | 0.12 | 0.00 | 77 | 1016.8 |
| 20260503040020 | 39 | 50 | 0.0 | 0.0 | 0.00 | 0.12 | 0.00 | 77 | 1016.9 |
| 20260503034518 | 39 | 49 | 0.0 | 0.0 | 0.00 | 0.14 | 0.12 | 77 | 1016.9 |
| 20260503031648 | 40 | 47 | 0.0 | 0.0 | 0.00 | 0.14 | 0.12 | 75 | 1017.0 |
| 20260503030132 | 40 | 47 | 0.0 | 0.0 | 0.00 | 0.14 | 0.12 | 74 | 1017.2 |
| 20260503024640 | 40 | 46 | 0.0 | 0.0 | 0.00 | 0.14 | 0.12 | 74 | 1017.2 |
| 20260503023142 | 39 | 26 | 0.0 | 0.0 | 0.00 | 0.14 | 0.12 | 74 | 1017.4 |
| 20260503021634 | 39 | 26 | 0.0 | 0.0 | 0.00 | 0.14 | 0.12 | 74 | 1017.3 |
| 20260503020144 | 40 | 26 | 0.0 | 0.0 | 0.00 | 0.14 | 0.12 | 74 | 1017.3 |
| 20260503014639 | 40 | 26 | 0.0 | 0.0 | 0.00 | 0.14 | 0.12 | 73 | 1017.4 |
| 20260503013131 | 40 | 26 | 0.0 | 0.0 | 0.00 | 0.14 | 0.12 | 72 | 1017.2 |
| 20260503011638 | 40 | 26 | 0.0 | 0.0 | 0.00 | 0.14 | 0.12 | 70 | 1017.2 |
| 20260503010142 | 41 | 26 | 0.0 | 0.0 | 0.00 | 0.14 | 0.12 | 69 | 1017.2 |
| 20260503004630 | 41 | 26 | 0.0 | 0.0 | 0.00 | 0.14 | 0.12 | 68 | 1017.1 |
| 20260503003144 | 41 | 26 | 0.0 | 0.0 | 0.00 | 0.14 | 0.12 | 66 | 1017.1 |
| 20260503001634 | 42 | 28 | 0.0 | 0.0 | 0.00 | 0.14 | 0.12 | 65 | 1017.1 |
| 20260503000136 | 42 | 28 | 0.0 | 0.0 | 0.00 | 0.14 | 0.12 | 65 | 1017.1 |
| 20260502234644 | 42 | 28 | 0.0 | 0.0 | 0.00 | 0.14 | 0.12 | 63 | 1017.0 |
| 20260502233133 | 42 | 28 | 0.0 | 0.0 | 0.00 | 0.14 | 0.12 | 64 | 1017.0 |
| 20260502231644 | 42 | 28 | 0.0 | 0.0 | 0.00 | 0.14 | 0.12 | 64 | 1017.0 |
| 20260502230135 | 42 | 28 | 0.0 | 0.9 | 0.00 | 0.14 | 0.12 | 63 | 1017.0 |